Back to Top

Language: 

My Weather Underground Personal Weather Station Historical Data with Graphs...

Delerius Weather Station Historical Data
Daily Summary for May 2, 2017 Units:  Both    English   Metric
« Previous Day
Next Day »
Daily Weekly Monthly Yearly Custom
  High: Low: Average:
Temperature: 59.4 °F /  15.2 °C 46.2 °F /  7.9 °C 51.1 °F /  10.6 °C
Dew Point: 48.8 °F /  9.3 °C 42.8 °F /  6 °C 45.9 °F /  7.7 °C
Humidity: 94 % 65 % 83 %
Wind Speed: 9.0 mph /  14.5 km/h - 3.8 mph /  6.1 km/h
Wind Gust: 19.0 mph /  30.6 km/h - -
Wind:- - ENE
Pressure: 30.31 in /  1026.3 hPa 30.00 in /  1015.8 hPa -
Precipitation: 0.00 in /  0 mm    
Historical Graphs
 
 
Tabular Data for May 2, 2017
Time Temperature Dew Point Pressure Wind Wind Speed Wind Gust Humidity Rainfall Rate (Hourly) solar Conditions
00:01 46.8 °F /  8.2 °C 44.3 °F /  6.8 °C 30.00 in /  1015.8 hPa NE 5.0 mph /  8 km/h 9.0 mph /  14.5 km/h 91 % 0.00 in /  0 mm 0 W/m2
00:06 46.8 °F /  8.2 °C 44.3 °F /  6.8 °C 30.01 in /  1016.1 hPa NE 6.0 mph /  9.7 km/h 8.0 mph /  12.9 km/h 91 % 0.00 in /  0 mm 0 W/m2
00:11 46.8 °F /  8.2 °C 44.3 °F /  6.8 °C 30.01 in /  1016.1 hPa NE 6.0 mph /  9.7 km/h 9.0 mph /  14.5 km/h 91 % 0.00 in /  0 mm 0 W/m2
00:16 46.8 °F /  8.2 °C 44.3 °F /  6.8 °C 30.01 in /  1016.1 hPa NNE 6.0 mph /  9.7 km/h 9.0 mph /  14.5 km/h 91 % 0.00 in /  0 mm 0 W/m2
00:21 46.8 °F /  8.2 °C 44.3 °F /  6.8 °C 30.01 in /  1016.1 hPa NNE 5.0 mph /  8 km/h 9.0 mph /  14.5 km/h 91 % 0.00 in /  0 mm 0 W/m2
00:26 46.8 °F /  8.2 °C 44.3 °F /  6.8 °C 30.01 in /  1016.1 hPa NNE 5.0 mph /  8 km/h 9.0 mph /  14.5 km/h 91 % 0.00 in /  0 mm 0 W/m2
00:31 46.8 °F /  8.2 °C 44.3 °F /  6.8 °C 30.01 in /  1016.1 hPa NNE 4.0 mph /  6.4 km/h 8.0 mph /  12.9 km/h 91 % 0.00 in /  0 mm 0 W/m2
00:36 46.8 °F /  8.2 °C 44.3 °F /  6.8 °C 30.02 in /  1016.5 hPa NNE 5.0 mph /  8 km/h 9.0 mph /  14.5 km/h 91 % 0.00 in /  0 mm 0 W/m2
00:41 46.8 °F /  8.2 °C 44.3 °F /  6.8 °C 30.01 in /  1016.1 hPa NE 5.0 mph /  8 km/h 9.0 mph /  14.5 km/h 91 % 0.00 in /  0 mm 0 W/m2
00:46 46.8 °F /  8.2 °C 44.3 °F /  6.8 °C 30.01 in /  1016.1 hPa NE 4.0 mph /  6.4 km/h 9.0 mph /  14.5 km/h 91 % 0.00 in /  0 mm 0 W/m2
00:51 46.6 °F /  8.1 °C 44.1 °F /  6.7 °C 30.01 in /  1016.1 hPa NE 4.0 mph /  6.4 km/h 8.0 mph /  12.9 km/h 91 % 0.00 in /  0 mm 0 W/m2
00:56 46.6 °F /  8.1 °C 44.1 °F /  6.7 °C 30.02 in /  1016.5 hPa NE 4.0 mph /  6.4 km/h 9.0 mph /  14.5 km/h 91 % 0.00 in /  0 mm 0 W/m2
01:01 46.6 °F /  8.1 °C 44.1 °F /  6.7 °C 30.02 in /  1016.5 hPa NE 4.0 mph /  6.4 km/h 9.0 mph /  14.5 km/h 91 % 0.00 in /  0 mm 0 W/m2
01:06 46.4 °F /  8 °C 43.9 °F /  6.6 °C 30.02 in /  1016.5 hPa NE 4.0 mph /  6.4 km/h 9.0 mph /  14.5 km/h 91 % 0.00 in /  0 mm 0 W/m2
01:11 46.4 °F /  8 °C 43.9 °F /  6.6 °C 30.02 in /  1016.5 hPa NE 4.0 mph /  6.4 km/h 9.0 mph /  14.5 km/h 91 % 0.00 in /  0 mm 0 W/m2
01:16 46.4 °F /  8 °C 43.9 °F /  6.6 °C 30.02 in /  1016.5 hPa NE 4.0 mph /  6.4 km/h 8.0 mph /  12.9 km/h 91 % 0.00 in /  0 mm 0 W/m2
01:21 46.2 °F /  7.9 °C 43.7 °F /  6.5 °C 30.03 in /  1016.8 hPa NE 5.0 mph /  8 km/h 10.0 mph /  16.1 km/h 91 % 0.00 in /  0 mm 0 W/m2
01:27 46.2 °F /  7.9 °C 44.0 °F /  6.7 °C 30.03 in /  1016.8 hPa NE 4.0 mph /  6.4 km/h 10.0 mph /  16.1 km/h 92 % 0.00 in /  0 mm 0 W/m2
01:32 46.2 °F /  7.9 °C 44.0 °F /  6.7 °C 30.03 in /  1016.8 hPa NE 4.0 mph /  6.4 km/h 9.0 mph /  14.5 km/h 92 % 0.00 in /  0 mm 0 W/m2
01:37 46.2 °F /  7.9 °C 44.0 °F /  6.7 °C 30.03 in /  1016.8 hPa NE 3.0 mph /  4.8 km/h 9.0 mph /  14.5 km/h 92 % 0.00 in /  0 mm 0 W/m2
01:42 46.2 °F /  7.9 °C 44.0 °F /  6.7 °C 30.04 in /  1017.2 hPa NE 3.0 mph /  4.8 km/h 9.0 mph /  14.5 km/h 92 % 0.00 in /  0 mm 0 W/m2
01:47 46.2 °F /  7.9 °C 44.0 °F /  6.7 °C 30.04 in /  1017.2 hPa ENE 3.0 mph /  4.8 km/h 9.0 mph /  14.5 km/h 92 % 0.00 in /  0 mm 0 W/m2
01:52 46.2 °F /  7.9 °C 44.0 °F /  6.7 °C 30.04 in /  1017.2 hPa ENE 2.0 mph /  3.2 km/h 7.0 mph /  11.3 km/h 92 % 0.00 in /  0 mm 0 W/m2
01:57 46.2 °F /  7.9 °C 44.0 °F /  6.7 °C 30.04 in /  1017.2 hPa ENE 3.0 mph /  4.8 km/h 7.0 mph /  11.3 km/h 92 % 0.00 in /  0 mm 0 W/m2
02:02 46.2 °F /  7.9 °C 44.0 °F /  6.7 °C 30.04 in /  1017.2 hPa NE 4.0 mph /  6.4 km/h 8.0 mph /  12.9 km/h 92 % 0.00 in /  0 mm 0 W/m2
02:07 46.2 °F /  7.9 °C 44.0 °F /  6.7 °C 30.04 in /  1017.2 hPa NE 3.0 mph /  4.8 km/h 8.0 mph /  12.9 km/h 92 % 0.00 in /  0 mm 0 W/m2
02:12 46.2 °F /  7.9 °C 44.0 °F /  6.7 °C 30.04 in /  1017.2 hPa NE 4.0 mph /  6.4 km/h 7.0 mph /  11.3 km/h 92 % 0.00 in /  0 mm 0 W/m2
02:17 46.2 °F /  7.9 °C 44.0 °F /  6.7 °C 30.05 in /  1017.5 hPa NE 4.0 mph /  6.4 km/h 8.0 mph /  12.9 km/h 92 % 0.00 in /  0 mm 0 W/m2
02:22 46.2 °F /  7.9 °C 44.0 °F /  6.7 °C 30.05 in /  1017.5 hPa NE 5.0 mph /  8 km/h 8.0 mph /  12.9 km/h 92 % 0.00 in /  0 mm 0 W/m2
02:27 46.2 °F /  7.9 °C 44.0 °F /  6.7 °C 30.05 in /  1017.5 hPa NNE 5.0 mph /  8 km/h 8.0 mph /  12.9 km/h 92 % 0.00 in /  0 mm 0 W/m2
02:32 46.2 °F /  7.9 °C 44.0 °F /  6.7 °C 30.05 in /  1017.5 hPa NNE 4.0 mph /  6.4 km/h 8.0 mph /  12.9 km/h 92 % 0.00 in /  0 mm 0 W/m2
02:37 46.2 °F /  7.9 °C 44.0 °F /  6.7 °C 30.05 in /  1017.5 hPa NNE 4.0 mph /  6.4 km/h 8.0 mph /  12.9 km/h 92 % 0.00 in /  0 mm 0 W/m2
02:42 46.2 °F /  7.9 °C 44.0 °F /  6.7 °C 30.05 in /  1017.5 hPa NNE 5.0 mph /  8 km/h 9.0 mph /  14.5 km/h 92 % 0.00 in /  0 mm 0 W/m2
02:47 46.2 °F /  7.9 °C 44.0 °F /  6.7 °C 30.05 in /  1017.5 hPa NNE 5.0 mph /  8 km/h 9.0 mph /  14.5 km/h 92 % 0.00 in /  0 mm 0 W/m2
02:52 46.2 °F /  7.9 °C 44.0 °F /  6.7 °C 30.05 in /  1017.5 hPa NNE 5.0 mph /  8 km/h 8.0 mph /  12.9 km/h 92 % 0.00 in /  0 mm 0 W/m2
02:57 46.2 °F /  7.9 °C 44.0 °F /  6.7 °C 30.06 in /  1017.8 hPa NE 4.0 mph /  6.4 km/h 8.0 mph /  12.9 km/h 92 % 0.00 in /  0 mm 0 W/m2
03:02 46.2 °F /  7.9 °C 44.0 °F /  6.7 °C 30.06 in /  1017.8 hPa NNE 3.0 mph /  4.8 km/h 7.0 mph /  11.3 km/h 92 % 0.00 in /  0 mm 0 W/m2
03:07 46.2 °F /  7.9 °C 44.0 °F /  6.7 °C 30.06 in /  1017.8 hPa NNE 3.0 mph /  4.8 km/h 7.0 mph /  11.3 km/h 92 % 0.00 in /  0 mm 0 W/m2
03:12 46.2 °F /  7.9 °C 44.0 °F /  6.7 °C 30.06 in /  1017.8 hPa NE 4.0 mph /  6.4 km/h 7.0 mph /  11.3 km/h 92 % 0.00 in /  0 mm 0 W/m2
03:17 46.2 °F /  7.9 °C 44.0 °F /  6.7 °C 30.06 in /  1017.8 hPa NE 2.0 mph /  3.2 km/h 7.0 mph /  11.3 km/h 92 % 0.00 in /  0 mm 0 W/m2
03:22 46.2 °F /  7.9 °C 44.0 °F /  6.7 °C 30.06 in /  1017.8 hPa NE 3.0 mph /  4.8 km/h 8.0 mph /  12.9 km/h 92 % 0.00 in /  0 mm 0 W/m2
03:27 46.4 °F /  8 °C 44.2 °F /  6.8 °C 30.06 in /  1017.8 hPa NE 4.0 mph /  6.4 km/h 8.0 mph /  12.9 km/h 92 % 0.00 in /  0 mm 0 W/m2
03:32 46.4 °F /  8 °C 44.2 °F /  6.8 °C 30.06 in /  1017.8 hPa ENE 3.0 mph /  4.8 km/h 7.0 mph /  11.3 km/h 92 % 0.00 in /  0 mm 0 W/m2
03:37 46.4 °F /  8 °C 44.2 °F /  6.8 °C 30.06 in /  1017.8 hPa NE 4.0 mph /  6.4 km/h 7.0 mph /  11.3 km/h 92 % 0.00 in /  0 mm 0 W/m2
03:42 46.4 °F /  8 °C 44.2 °F /  6.8 °C 30.06 in /  1017.8 hPa NE 4.0 mph /  6.4 km/h 8.0 mph /  12.9 km/h 92 % 0.00 in /  0 mm 0 W/m2
03:47 46.4 °F /  8 °C 44.5 °F /  6.9 °C 30.06 in /  1017.8 hPa NE 4.0 mph /  6.4 km/h 9.0 mph /  14.5 km/h 93 % 0.00 in /  0 mm 0 W/m2
03:52 46.6 °F /  8.1 °C 44.7 °F /  7.1 °C 30.06 in /  1017.8 hPa NE 4.0 mph /  6.4 km/h 9.0 mph /  14.5 km/h 93 % 0.00 in /  0 mm 0 W/m2
03:57 46.6 °F /  8.1 °C 44.7 °F /  7.1 °C 30.06 in /  1017.8 hPa NE 3.0 mph /  4.8 km/h 8.0 mph /  12.9 km/h 93 % 0.00 in /  0 mm 0 W/m2
04:02 46.6 °F /  8.1 °C 44.7 °F /  7.1 °C 30.06 in /  1017.8 hPa ENE 2.0 mph /  3.2 km/h 8.0 mph /  12.9 km/h 93 % 0.00 in /  0 mm 0 W/m2
04:07 46.6 °F /  8.1 °C 44.7 °F /  7.1 °C 30.07 in /  1018.2 hPa ENE 3.0 mph /  4.8 km/h 9.0 mph /  14.5 km/h 93 % 0.00 in /  0 mm 0 W/m2
04:13 46.6 °F /  8.1 °C 44.7 °F /  7.1 °C 30.07 in /  1018.2 hPa ENE 3.0 mph /  4.8 km/h 9.0 mph /  14.5 km/h 93 % 0.00 in /  0 mm 0 W/m2
04:18 46.6 °F /  8.1 °C 44.7 °F /  7.1 °C 30.07 in /  1018.2 hPa ENE 3.0 mph /  4.8 km/h 8.0 mph /  12.9 km/h 93 % 0.00 in /  0 mm 0 W/m2
04:23 46.6 °F /  8.1 °C 44.7 °F /  7.1 °C 30.07 in /  1018.2 hPa ENE 2.0 mph /  3.2 km/h 7.0 mph /  11.3 km/h 93 % 0.00 in /  0 mm 0 W/m2
04:28 46.6 °F /  8.1 °C 44.7 °F /  7.1 °C 30.07 in /  1018.2 hPa ENE 2.0 mph /  3.2 km/h 6.0 mph /  9.7 km/h 93 % 0.00 in /  0 mm 0 W/m2
04:33 46.6 °F /  8.1 °C 44.7 °F /  7.1 °C 30.07 in /  1018.2 hPa ENE 2.0 mph /  3.2 km/h 6.0 mph /  9.7 km/h 93 % 0.00 in /  0 mm 0 W/m2
04:38 46.6 °F /  8.1 °C 44.7 °F /  7.1 °C 30.07 in /  1018.2 hPa ENE 1.0 mph /  1.6 km/h 6.0 mph /  9.7 km/h 93 % 0.00 in /  0 mm 0 W/m2
04:43 46.6 °F /  8.1 °C 44.7 °F /  7.1 °C 30.07 in /  1018.2 hPa ENE 1.0 mph /  1.6 km/h 5.0 mph /  8 km/h 93 % 0.00 in /  0 mm 0 W/m2
04:48 46.6 °F /  8.1 °C 44.7 °F /  7.1 °C 30.07 in /  1018.2 hPa East 1.0 mph /  1.6 km/h 5.0 mph /  8 km/h 93 % 0.00 in /  0 mm 0 W/m2
04:53 46.6 °F /  8.1 °C 44.7 °F /  7.1 °C 30.08 in /  1018.5 hPa East 1.0 mph /  1.6 km/h 4.0 mph /  6.4 km/h 93 % 0.00 in /  0 mm 0 W/m2
04:58 46.6 °F /  8.1 °C 44.7 °F /  7.1 °C 30.08 in /  1018.5 hPa ENE 2.0 mph /  3.2 km/h 6.0 mph /  9.7 km/h 93 % 0.00 in /  0 mm 0 W/m2
05:03 46.6 °F /  8.1 °C 44.7 °F /  7.1 °C 30.08 in /  1018.5 hPa ENE 2.0 mph /  3.2 km/h 6.0 mph /  9.7 km/h 93 % 0.00 in /  0 mm 0 W/m2
05:08 46.6 °F /  8.1 °C 44.7 °F /  7.1 °C 30.08 in /  1018.5 hPa East 2.0 mph /  3.2 km/h 5.0 mph /  8 km/h 93 % 0.00 in /  0 mm 0 W/m2
05:13 46.6 °F /  8.1 °C 44.7 °F /  7.1 °C 30.08 in /  1018.5 hPa East 1.0 mph /  1.6 km/h 6.0 mph /  9.7 km/h 93 % 0.00 in /  0 mm 0 W/m2
05:18 46.6 °F /  8.1 °C 44.7 °F /  7.1 °C 30.08 in /  1018.5 hPa ENE 1.0 mph /  1.6 km/h 6.0 mph /  9.7 km/h 93 % 0.00 in /  0 mm 0 W/m2
05:23 46.8 °F /  8.2 °C 45.1 °F /  7.3 °C 30.08 in /  1018.5 hPa Calm   4.0 mph /  6.4 km/h 94 % 0.00 in /  0 mm 0 W/m2
05:28 46.8 °F /  8.2 °C 44.8 °F /  7.1 °C 30.09 in /  1018.8 hPa Calm   2.0 mph /  3.2 km/h 93 % 0.00 in /  0 mm 0 W/m2
05:33 46.8 °F /  8.2 °C 44.8 °F /  7.1 °C 30.09 in /  1018.8 hPa Calm   5.0 mph /  8 km/h 93 % 0.00 in /  0 mm 0 W/m2
05:38 46.9 °F /  8.3 °C 45.0 °F /  7.2 °C 30.09 in /  1018.8 hPa ENE 1.0 mph /  1.6 km/h 5.0 mph /  8 km/h 93 % 0.00 in /  0 mm 5 W/m2
05:43 46.9 °F /  8.3 °C 45.0 °F /  7.2 °C 30.10 in /  1019.2 hPa ENE 1.0 mph /  1.6 km/h 4.0 mph /  6.4 km/h 93 % 0.00 in /  0 mm 5 W/m2
05:48 46.9 °F /  8.3 °C 45.0 °F /  7.2 °C 30.10 in /  1019.2 hPa ENE 1.0 mph /  1.6 km/h 5.0 mph /  8 km/h 93 % 0.00 in /  0 mm 7 W/m2
05:53 46.9 °F /  8.3 °C 45.0 °F /  7.2 °C 30.10 in /  1019.2 hPa ENE 1.0 mph /  1.6 km/h 5.0 mph /  8 km/h 93 % 0.00 in /  0 mm 9 W/m2
05:58 46.9 °F /  8.3 °C 45.0 °F /  7.2 °C 30.10 in /  1019.2 hPa Calm   2.0 mph /  3.2 km/h 93 % 0.00 in /  0 mm 12 W/m2
06:03 46.9 °F /  8.3 °C 45.0 °F /  7.2 °C 30.10 in /  1019.2 hPa Calm   2.0 mph /  3.2 km/h 93 % 0.00 in /  0 mm 16 W/m2
06:08 46.9 °F /  8.3 °C 45.3 °F /  7.4 °C 30.10 in /  1019.2 hPa Calm     94 % 0.00 in /  0 mm 16 W/m2
06:14 46.9 °F /  8.3 °C 45.3 °F /  7.4 °C 30.10 in /  1019.2 hPa Calm     94 % 0.00 in /  0 mm 14 W/m2
06:19 47.1 °F /  8.4 °C 45.2 °F /  7.3 °C 30.11 in /  1019.5 hPa Calm   4.0 mph /  6.4 km/h 93 % 0.00 in /  0 mm 14 W/m2
06:24 47.1 °F /  8.4 °C 45.2 °F /  7.3 °C 30.11 in /  1019.5 hPa Calm   4.0 mph /  6.4 km/h 93 % 0.00 in /  0 mm 18 W/m2
06:29 47.1 °F /  8.4 °C 45.2 °F /  7.3 °C 30.11 in /  1019.5 hPa ENE 1.0 mph /  1.6 km/h 5.0 mph /  8 km/h 93 % 0.00 in /  0 mm 21 W/m2
06:34 47.1 °F /  8.4 °C 45.5 °F /  7.5 °C 30.11 in /  1019.5 hPa ENE 1.0 mph /  1.6 km/h 5.0 mph /  8 km/h 94 % 0.00 in /  0 mm 28 W/m2
06:39 47.1 °F /  8.4 °C 45.5 °F /  7.5 °C 30.11 in /  1019.5 hPa Calm   4.0 mph /  6.4 km/h 94 % 0.00 in /  0 mm 28 W/m2
06:44 47.1 °F /  8.4 °C 45.5 °F /  7.5 °C 30.12 in /  1019.9 hPa ENE 1.0 mph /  1.6 km/h 4.0 mph /  6.4 km/h 94 % 0.00 in /  0 mm 33 W/m2
06:49 47.3 °F /  8.5 °C 45.7 °F /  7.6 °C 30.12 in /  1019.9 hPa Calm   4.0 mph /  6.4 km/h 94 % 0.00 in /  0 mm 35 W/m2
06:54 47.3 °F /  8.5 °C 45.7 °F /  7.6 °C 30.12 in /  1019.9 hPa ENE 1.0 mph /  1.6 km/h 6.0 mph /  9.7 km/h 94 % 0.00 in /  0 mm 44 W/m2
06:59 47.3 °F /  8.5 °C 45.7 °F /  7.6 °C 30.12 in /  1019.9 hPa ENE 1.0 mph /  1.6 km/h 6.0 mph /  9.7 km/h 94 % 0.00 in /  0 mm 60 W/m2
07:04 47.5 °F /  8.6 °C 45.8 °F /  7.7 °C 30.12 in /  1019.9 hPa Calm   4.0 mph /  6.4 km/h 94 % 0.00 in /  0 mm 56 W/m2
07:09 47.5 °F /  8.6 °C 45.6 °F /  7.6 °C 30.12 in /  1019.9 hPa Calm   2.0 mph /  3.2 km/h 93 % 0.00 in /  0 mm 63 W/m2
07:14 47.5 °F /  8.6 °C 45.6 °F /  7.6 °C 30.12 in /  1019.9 hPa Calm   2.0 mph /  3.2 km/h 93 % 0.00 in /  0 mm 56 W/m2
07:19 47.7 °F /  8.7 °C 45.7 °F /  7.6 °C 30.13 in /  1020.2 hPa Calm   4.0 mph /  6.4 km/h 93 % 0.00 in /  0 mm 69 W/m2
07:24 47.7 °F /  8.7 °C 46.0 °F /  7.8 °C 30.13 in /  1020.2 hPa Calm   4.0 mph /  6.4 km/h 94 % 0.00 in /  0 mm 63 W/m2
07:29 47.8 °F /  8.8 °C 45.9 °F /  7.7 °C 30.13 in /  1020.2 hPa Calm   2.0 mph /  3.2 km/h 93 % 0.00 in /  0 mm 63 W/m2
07:35 47.8 °F /  8.8 °C 45.9 °F /  7.7 °C 30.13 in /  1020.2 hPa Calm   3.0 mph /  4.8 km/h 93 % 0.00 in /  0 mm 69 W/m2
07:40 48.0 °F /  8.9 °C 46.1 °F /  7.8 °C 30.14 in /  1020.5 hPa NE 1.0 mph /  1.6 km/h 6.0 mph /  9.7 km/h 93 % 0.00 in /  0 mm 88 W/m2
07:45 48.0 °F /  8.9 °C 46.1 °F /  7.8 °C 30.14 in /  1020.5 hPa NE 1.0 mph /  1.6 km/h 6.0 mph /  9.7 km/h 93 % 0.00 in /  0 mm 81 W/m2
07:50 48.2 °F /  9 °C 46.3 °F /  7.9 °C 30.14 in /  1020.5 hPa NNE 1.0 mph /  1.6 km/h 5.0 mph /  8 km/h 93 % 0.00 in /  0 mm 104 W/m2
07:55 48.2 °F /  9 °C 46.3 °F /  7.9 °C 30.14 in /  1020.5 hPa NNE 1.0 mph /  1.6 km/h 5.0 mph /  8 km/h 93 % 0.00 in /  0 mm 83 W/m2
08:00 48.4 °F /  9.1 °C 46.2 °F /  7.9 °C 30.14 in /  1020.5 hPa NNE 1.0 mph /  1.6 km/h 5.0 mph /  8 km/h 92 % 0.00 in /  0 mm 142 W/m2
08:05 48.6 °F /  9.2 °C 46.3 °F /  7.9 °C 30.14 in /  1020.5 hPa NNE 1.0 mph /  1.6 km/h 5.0 mph /  8 km/h 92 % 0.00 in /  0 mm 142 W/m2
08:10 48.7 °F /  9.3 °C 46.5 °F /  8.1 °C 30.14 in /  1020.5 hPa NNE 1.0 mph /  1.6 km/h 5.0 mph /  8 km/h 92 % 0.00 in /  0 mm 137 W/m2
08:15 48.9 °F /  9.4 °C 46.4 °F /  8 °C 30.15 in /  1020.9 hPa NNE 1.0 mph /  1.6 km/h 4.0 mph /  6.4 km/h 91 % 0.00 in /  0 mm 137 W/m2
08:20 49.1 °F /  9.5 °C 46.6 °F /  8.1 °C 30.15 in /  1020.9 hPa NNE 1.0 mph /  1.6 km/h 4.0 mph /  6.4 km/h 91 % 0.00 in /  0 mm 153 W/m2
08:25 49.3 °F /  9.6 °C 46.5 °F /  8.1 °C 30.15 in /  1020.9 hPa NNE 1.0 mph /  1.6 km/h 5.0 mph /  8 km/h 90 % 0.00 in /  0 mm 123 W/m2
08:30 49.5 °F /  9.7 °C 46.6 °F /  8.1 °C 30.15 in /  1020.9 hPa NNW 2.0 mph /  3.2 km/h 5.0 mph /  8 km/h 90 % 0.00 in /  0 mm 135 W/m2
08:35 49.5 °F /  9.7 °C 46.4 °F /  8 °C 30.15 in /  1020.9 hPa NNW 2.0 mph /  3.2 km/h 5.0 mph /  8 km/h 89 % 0.00 in /  0 mm 151 W/m2
08:40 49.5 °F /  9.7 °C 46.4 °F /  8 °C 30.15 in /  1020.9 hPa NNE 1.0 mph /  1.6 km/h 5.0 mph /  8 km/h 89 % 0.00 in /  0 mm 158 W/m2
08:45 49.5 °F /  9.7 °C 46.4 °F /  8 °C 30.15 in /  1020.9 hPa NE 2.0 mph /  3.2 km/h 6.0 mph /  9.7 km/h 89 % 0.00 in /  0 mm 185 W/m2
08:50 49.6 °F /  9.8 °C 46.5 °F /  8.1 °C 30.16 in /  1021.2 hPa NE 3.0 mph /  4.8 km/h 6.0 mph /  9.7 km/h 89 % 0.00 in /  0 mm 172 W/m2
08:55 49.6 °F /  9.8 °C 46.2 °F /  7.9 °C 30.16 in /  1021.2 hPa NNE 3.0 mph /  4.8 km/h 7.0 mph /  11.3 km/h 88 % 0.00 in /  0 mm 141 W/m2
09:00 49.6 °F /  9.8 °C 46.2 °F /  7.9 °C 30.16 in /  1021.2 hPa NNE 4.0 mph /  6.4 km/h 7.0 mph /  11.3 km/h 88 % 0.00 in /  0 mm 183 W/m2
09:02 49.6 °F /  9.8 °C 46.2 °F /  7.9 °C 30.16 in /  1021.2 hPa NNE 3.0 mph /  4.8 km/h 7.0 mph /  11.3 km/h 88 % 0.00 in /  0 mm 197 W/m2
09:07 49.8 °F /  9.9 °C 46.4 °F /  8 °C 30.16 in /  1021.2 hPa NNE 4.0 mph /  6.4 km/h 9.0 mph /  14.5 km/h 88 % 0.00 in /  0 mm 200 W/m2
09:12 50.2 °F /  10.1 °C 46.8 °F /  8.2 °C 30.17 in /  1021.6 hPa North 4.0 mph /  6.4 km/h 9.0 mph /  14.5 km/h 88 % 0.00 in /  0 mm 209 W/m2
09:13 50.2 °F /  10.1 °C 46.8 °F /  8.2 °C 30.17 in /  1021.6 hPa North 4.0 mph /  6.4 km/h 9.0 mph /  14.5 km/h 88 % 0.00 in /  0 mm 209 W/m2
09:18 50.4 °F /  10.2 °C 46.9 °F /  8.3 °C 30.17 in /  1021.6 hPa NNW 2.0 mph /  3.2 km/h 6.0 mph /  9.7 km/h 88 % 0.00 in /  0 mm 250 W/m2
09:23 50.7 °F /  10.4 °C 47.0 °F /  8.3 °C 30.17 in /  1021.6 hPa NNW 3.0 mph /  4.8 km/h 7.0 mph /  11.3 km/h 87 % 0.00 in /  0 mm 246 W/m2
09:28 51.1 °F /  10.6 °C 47.0 °F /  8.3 °C 30.17 in /  1021.6 hPa NNW 3.0 mph /  4.8 km/h 7.0 mph /  11.3 km/h 86 % 0.00 in /  0 mm 343 W/m2
09:33 51.4 °F /  10.8 °C 47.1 °F /  8.4 °C 30.17 in /  1021.6 hPa North 2.0 mph /  3.2 km/h 6.0 mph /  9.7 km/h 85 % 0.00 in /  0 mm 302 W/m2
09:38 51.8 °F /  11 °C 47.4 °F /  8.6 °C 30.17 in /  1021.6 hPa NNW 2.0 mph /  3.2 km/h 6.0 mph /  9.7 km/h 85 % 0.00 in /  0 mm 278 W/m2
09:43 52.2 °F /  11.2 °C 47.5 °F /  8.6 °C 30.17 in /  1021.6 hPa NW 2.0 mph /  3.2 km/h 6.0 mph /  9.7 km/h 84 % 0.00 in /  0 mm 271 W/m2
09:48 52.5 °F /  11.4 °C 47.2 °F /  8.4 °C 30.17 in /  1021.6 hPa NW 2.0 mph /  3.2 km/h 6.0 mph /  9.7 km/h 82 % 0.00 in /  0 mm 260 W/m2
09:53 52.7 °F /  11.5 °C 47.4 °F /  8.6 °C 30.17 in /  1021.6 hPa NW 2.0 mph /  3.2 km/h 6.0 mph /  9.7 km/h 82 % 0.00 in /  0 mm 330 W/m2
09:58 52.9 °F /  11.6 °C 47.5 °F /  8.6 °C 30.17 in /  1021.6 hPa NW 1.0 mph /  1.6 km/h 4.0 mph /  6.4 km/h 82 % 0.00 in /  0 mm 318 W/m2
10:03 53.1 °F /  11.7 °C 47.1 °F /  8.4 °C 30.17 in /  1021.6 hPa NNE 1.0 mph /  1.6 km/h 7.0 mph /  11.3 km/h 80 % 0.00 in /  0 mm 236 W/m2
10:08 53.1 °F /  11.7 °C 46.7 °F /  8.2 °C 30.17 in /  1021.6 hPa NNE 3.0 mph /  4.8 km/h 7.0 mph /  11.3 km/h 79 % 0.00 in /  0 mm 236 W/m2
10:13 53.2 °F /  11.8 °C 47.2 °F /  8.4 °C 30.17 in /  1021.6 hPa NNE 3.0 mph /  4.8 km/h 7.0 mph /  11.3 km/h 80 % 0.00 in /  0 mm 352 W/m2
10:18 53.4 °F /  11.9 °C 47.4 °F /  8.6 °C 30.17 in /  1021.6 hPa NE 3.0 mph /  4.8 km/h 8.0 mph /  12.9 km/h 80 % 0.00 in /  0 mm 406 W/m2
10:23 53.8 °F /  12.1 °C 47.8 °F /  8.8 °C 30.17 in /  1021.6 hPa NNE 4.0 mph /  6.4 km/h 8.0 mph /  12.9 km/h 80 % 0.00 in /  0 mm 446 W/m2
10:28 54.3 °F /  12.4 °C 47.9 °F /  8.8 °C 30.17 in /  1021.6 hPa North 5.0 mph /  8 km/h 8.0 mph /  12.9 km/h 79 % 0.00 in /  0 mm 271 W/m2
10:33 54.5 °F /  12.5 °C 47.8 °F /  8.8 °C 30.17 in /  1021.6 hPa North 4.0 mph /  6.4 km/h 8.0 mph /  12.9 km/h 78 % 0.00 in /  0 mm 272 W/m2
10:38 54.5 °F /  12.5 °C 47.8 °F /  8.8 °C 30.17 in /  1021.6 hPa NNE 4.0 mph /  6.4 km/h 9.0 mph /  14.5 km/h 78 % 0.00 in /  0 mm 399 W/m2
10:43 54.7 °F /  12.6 °C 48.0 °F /  8.9 °C 30.17 in /  1021.6 hPa NNE 4.0 mph /  6.4 km/h 9.0 mph /  14.5 km/h 78 % 0.00 in /  0 mm 413 W/m2
10:48 55.0 °F /  12.8 °C 48.3 °F /  9.1 °C 30.18 in /  1021.9 hPa NE 4.0 mph /  6.4 km/h 7.0 mph /  11.3 km/h 78 % 0.00 in /  0 mm 415 W/m2
10:53 55.4 °F /  13 °C 48.0 °F /  8.9 °C 30.18 in /  1021.9 hPa NE 4.0 mph /  6.4 km/h 9.0 mph /  14.5 km/h 76 % 0.00 in /  0 mm 772 W/m2
10:58 55.2 °F /  12.9 °C 47.4 °F /  8.6 °C 30.18 in /  1021.9 hPa NNE 5.0 mph /  8 km/h 10.0 mph /  16.1 km/h 75 % 0.00 in /  0 mm 334 W/m2
11:03 55.4 °F /  13 °C 48.0 °F /  8.9 °C 30.18 in /  1021.9 hPa NNE 5.0 mph /  8 km/h 10.0 mph /  16.1 km/h 76 % 0.00 in /  0 mm 714 W/m2
11:08 55.8 °F /  13.2 °C 48.3 °F /  9.1 °C 30.18 in /  1021.9 hPa NNE 4.0 mph /  6.4 km/h 9.0 mph /  14.5 km/h 76 % 0.00 in /  0 mm 316 W/m2
11:13 55.9 °F /  13.3 °C 48.1 °F /  8.9 °C 30.18 in /  1021.9 hPa North 3.0 mph /  4.8 km/h 8.0 mph /  12.9 km/h 75 % 0.00 in /  0 mm 323 W/m2
11:18 55.9 °F /  13.3 °C 47.8 °F /  8.8 °C 30.18 in /  1021.9 hPa NNE 4.0 mph /  6.4 km/h 8.0 mph /  12.9 km/h 74 % 0.00 in /  0 mm 455 W/m2
11:23 55.8 °F /  13.2 °C 48.0 °F /  8.9 °C 30.18 in /  1021.9 hPa NNE 4.0 mph /  6.4 km/h 11.0 mph /  17.7 km/h 75 % 0.00 in /  0 mm 283 W/m2
11:28 55.2 °F /  12.9 °C 47.4 °F /  8.6 °C 30.17 in /  1021.6 hPa NNE 5.0 mph /  8 km/h 11.0 mph /  17.7 km/h 75 % 0.00 in /  0 mm 403 W/m2
11:33 55.4 °F /  13 °C 47.6 °F /  8.7 °C 30.17 in /  1021.6 hPa NNE 5.0 mph /  8 km/h 11.0 mph /  17.7 km/h 75 % 0.00 in /  0 mm 991 W/m2
11:38 56.1 °F /  13.4 °C 48.3 °F /  9.1 °C 30.17 in /  1021.6 hPa NNE 4.0 mph /  6.4 km/h 9.0 mph /  14.5 km/h 75 % 0.00 in /  0 mm 687 W/m2
11:43 56.7 °F /  13.7 °C 48.1 °F /  8.9 °C 30.17 in /  1021.6 hPa North 4.0 mph /  6.4 km/h 9.0 mph /  14.5 km/h 73 % 0.00 in /  0 mm 510 W/m2
11:48 57.0 °F /  13.9 °C 48.1 °F /  8.9 °C 30.17 in /  1021.6 hPa North 4.0 mph /  6.4 km/h 9.0 mph /  14.5 km/h 72 % 0.00 in /  0 mm 522 W/m2
11:53 57.6 °F /  14.2 °C 48.6 °F /  9.2 °C 30.17 in /  1021.6 hPa NE 3.0 mph /  4.8 km/h 8.0 mph /  12.9 km/h 72 % 0.00 in /  0 mm 346 W/m2
11:58 57.6 °F /  14.2 °C 47.8 °F /  8.8 °C 30.17 in /  1021.6 hPa NE 4.0 mph /  6.4 km/h 9.0 mph /  14.5 km/h 70 % 0.00 in /  0 mm 318 W/m2
12:04 57.0 °F /  13.9 °C 47.7 °F /  8.7 °C 30.17 in /  1021.6 hPa NNE 5.0 mph /  8 km/h 11.0 mph /  17.7 km/h 71 % 0.00 in /  0 mm 246 W/m2
12:05 56.8 °F /  13.8 °C 47.9 °F /  8.8 °C 30.17 in /  1021.6 hPa NNE 5.0 mph /  8 km/h 11.0 mph /  17.7 km/h 72 % 0.00 in /  0 mm 230 W/m2
12:10 56.3 °F /  13.5 °C 47.8 °F /  8.8 °C 30.17 in /  1021.6 hPa NNE 6.0 mph /  9.7 km/h 12.0 mph /  19.3 km/h 73 % 0.00 in /  0 mm 185 W/m2
12:15 55.9 °F /  13.3 °C 47.4 °F /  8.6 °C 30.18 in /  1021.9 hPa NE 6.0 mph /  9.7 km/h 12.0 mph /  19.3 km/h 73 % 0.00 in /  0 mm 227 W/m2
12:20 55.8 °F /  13.2 °C 47.6 °F /  8.7 °C 30.18 in /  1021.9 hPa NE 4.0 mph /  6.4 km/h 10.0 mph /  16.1 km/h 74 % 0.00 in /  0 mm 283 W/m2
12:25 55.9 °F /  13.3 °C 47.8 °F /  8.8 °C 30.17 in /  1021.6 hPa NE 5.0 mph /  8 km/h 9.0 mph /  14.5 km/h 74 % 0.00 in /  0 mm 248 W/m2
12:30 55.9 °F /  13.3 °C 47.8 °F /  8.8 °C 30.18 in /  1021.9 hPa NE 5.0 mph /  8 km/h 9.0 mph /  14.5 km/h 74 % 0.00 in /  0 mm 142 W/m2
12:35 55.9 °F /  13.3 °C 47.4 °F /  8.6 °C 30.18 in /  1021.9 hPa NE 4.0 mph /  6.4 km/h 8.0 mph /  12.9 km/h 73 % 0.00 in /  0 mm 128 W/m2
12:40 55.9 °F /  13.3 °C 47.4 °F /  8.6 °C 30.18 in /  1021.9 hPa NE 4.0 mph /  6.4 km/h 8.0 mph /  12.9 km/h 73 % 0.00 in /  0 mm 221 W/m2
12:45 56.1 °F /  13.4 °C 47.2 °F /  8.4 °C 30.18 in /  1021.9 hPa ENE 3.0 mph /  4.8 km/h 8.0 mph /  12.9 km/h 72 % 0.00 in /  0 mm 237 W/m2
12:51 56.1 °F /  13.4 °C 46.8 °F /  8.2 °C 30.18 in /  1021.9 hPa ENE 5.0 mph /  8 km/h 11.0 mph /  17.7 km/h 71 % 0.00 in /  0 mm 220 W/m2
12:56 55.9 °F /  13.3 °C 46.7 °F /  8.2 °C 30.18 in /  1021.9 hPa ENE 6.0 mph /  9.7 km/h 11.0 mph /  17.7 km/h 71 % 0.00 in /  0 mm 211 W/m2
13:01 56.1 °F /  13.4 °C 46.5 °F /  8.1 °C 30.18 in /  1021.9 hPa ENE 5.0 mph /  8 km/h 11.0 mph /  17.7 km/h 70 % 0.00 in /  0 mm 218 W/m2
13:06 56.1 °F /  13.4 °C 46.5 °F /  8.1 °C 30.18 in /  1021.9 hPa ENE 5.0 mph /  8 km/h 10.0 mph /  16.1 km/h 70 % 0.00 in /  0 mm 220 W/m2
13:11 56.1 °F /  13.4 °C 46.5 °F /  8.1 °C 30.18 in /  1021.9 hPa ENE 5.0 mph /  8 km/h 9.0 mph /  14.5 km/h 70 % 0.00 in /  0 mm 211 W/m2
13:16 56.3 °F /  13.5 °C 47.0 °F /  8.3 °C 30.18 in /  1021.9 hPa ENE 5.0 mph /  8 km/h 10.0 mph /  16.1 km/h 71 % 0.00 in /  0 mm 179 W/m2
13:21 56.1 °F /  13.4 °C 46.8 °F /  8.2 °C 30.18 in /  1021.9 hPa ENE 6.0 mph /  9.7 km/h 10.0 mph /  16.1 km/h 71 % 0.00 in /  0 mm 181 W/m2
13:26 56.1 °F /  13.4 °C 46.8 °F /  8.2 °C 30.18 in /  1021.9 hPa ENE 5.0 mph /  8 km/h 9.0 mph /  14.5 km/h 71 % 0.00 in /  0 mm 262 W/m2
13:31 56.3 °F /  13.5 °C 47.4 °F /  8.6 °C 30.18 in /  1021.9 hPa NE 4.0 mph /  6.4 km/h 9.0 mph /  14.5 km/h 72 % 0.00 in /  0 mm 353 W/m2
13:36 56.5 °F /  13.6 °C 47.6 °F /  8.7 °C 30.18 in /  1021.9 hPa NE 4.0 mph /  6.4 km/h 11.0 mph /  17.7 km/h 72 % 0.00 in /  0 mm 315 W/m2
13:41 56.7 °F /  13.7 °C 47.4 °F /  8.6 °C 30.18 in /  1021.9 hPa ENE 4.0 mph /  6.4 km/h 11.0 mph /  17.7 km/h 71 % 0.00 in /  0 mm 253 W/m2
13:46 56.8 °F /  13.8 °C 47.2 °F /  8.4 °C 30.18 in /  1021.9 hPa ENE 3.0 mph /  4.8 km/h 8.0 mph /  12.9 km/h 70 % 0.00 in /  0 mm 260 W/m2
13:51 56.8 °F /  13.8 °C 47.2 °F /  8.4 °C 30.18 in /  1021.9 hPa East 3.0 mph /  4.8 km/h 7.0 mph /  11.3 km/h 70 % 0.00 in /  0 mm 244 W/m2
13:56 56.8 °F /  13.8 °C 47.2 °F /  8.4 °C 30.19 in /  1022.2 hPa ENE 4.0 mph /  6.4 km/h 9.0 mph /  14.5 km/h 70 % 0.00 in /  0 mm 172 W/m2
14:01 56.8 °F /  13.8 °C 47.2 °F /  8.4 °C 30.18 in /  1021.9 hPa NE 4.0 mph /  6.4 km/h 9.0 mph /  14.5 km/h 70 % 0.00 in /  0 mm 225 W/m2
14:06 56.8 °F /  13.8 °C 47.5 °F /  8.6 °C 30.18 in /  1021.9 hPa NE 4.0 mph /  6.4 km/h 9.0 mph /  14.5 km/h 71 % 0.00 in /  0 mm 265 W/m2
14:11 56.8 °F /  13.8 °C 47.5 °F /  8.6 °C 30.18 in /  1021.9 hPa NE 4.0 mph /  6.4 km/h 10.0 mph /  16.1 km/h 71 % 0.00 in /  0 mm 306 W/m2
14:16 57.0 °F /  13.9 °C 47.3 °F /  8.5 °C 30.18 in /  1021.9 hPa NE 6.0 mph /  9.7 km/h 12.0 mph /  19.3 km/h 70 % 0.00 in /  0 mm 388 W/m2
14:21 57.4 °F /  14.1 °C 47.3 °F /  8.5 °C 30.18 in /  1021.9 hPa ENE 5.0 mph /  8 km/h 12.0 mph /  19.3 km/h 69 % 0.00 in /  0 mm 311 W/m2
14:26 57.7 °F /  14.3 °C 47.2 °F /  8.4 °C 30.18 in /  1021.9 hPa NE 5.0 mph /  8 km/h 11.0 mph /  17.7 km/h 68 % 0.00 in /  0 mm 308 W/m2
14:31 57.9 °F /  14.4 °C 47.4 °F /  8.6 °C 30.18 in /  1021.9 hPa NE 4.0 mph /  6.4 km/h 9.0 mph /  14.5 km/h 68 % 0.00 in /  0 mm 396 W/m2
14:36 57.9 °F /  14.4 °C 47.4 °F /  8.6 °C 30.18 in /  1021.9 hPa NE 5.0 mph /  8 km/h 10.0 mph /  16.1 km/h 68 % 0.00 in /  0 mm 327 W/m2
14:41 58.1 °F /  14.5 °C 48.0 °F /  8.9 °C 30.18 in /  1021.9 hPa NNE 5.0 mph /  8 km/h 10.0 mph /  16.1 km/h 69 % 0.00 in /  0 mm 299 W/m2
14:46 58.5 °F /  14.7 °C 47.1 °F /  8.4 °C 30.18 in /  1021.9 hPa NNE 5.0 mph /  8 km/h 18.0 mph /  29 km/h 66 % 0.00 in /  0 mm 232 W/m2
14:51 58.3 °F /  14.6 °C 47.0 °F /  8.3 °C 30.18 in /  1021.9 hPa NNE 6.0 mph /  9.7 km/h 18.0 mph /  29 km/h 66 % 0.00 in /  0 mm 213 W/m2
14:56 58.3 °F /  14.6 °C 47.4 °F /  8.6 °C 30.18 in /  1021.9 hPa NNE 6.0 mph /  9.7 km/h 12.0 mph /  19.3 km/h 67 % 0.00 in /  0 mm 299 W/m2
15:01 58.3 °F /  14.6 °C 47.8 °F /  8.8 °C 30.18 in /  1021.9 hPa NE 6.0 mph /  9.7 km/h 12.0 mph /  19.3 km/h 68 % 0.00 in /  0 mm 225 W/m2
15:11 58.3 °F /  14.6 °C 47.8 °F /  8.8 °C 30.18 in /  1021.9 hPa NE 6.0 mph /  9.7 km/h 11.0 mph /  17.7 km/h 68 % 0.00 in /  0 mm 297 W/m2
15:21 58.5 °F /  14.7 °C 47.9 °F /  8.8 °C 30.19 in /  1022.2 hPa NE 7.0 mph /  11.3 km/h 12.0 mph /  19.3 km/h 68 % 0.00 in /  0 mm 471 W/m2
15:26 58.6 °F /  14.8 °C 48.1 °F /  8.9 °C 30.18 in /  1021.9 hPa NE 7.0 mph /  11.3 km/h 12.0 mph /  19.3 km/h 68 % 0.00 in /  0 mm 661 W/m2
15:31 59.0 °F /  15 °C 48.4 °F /  9.1 °C 30.18 in /  1021.9 hPa NE 5.0 mph /  8 km/h 11.0 mph /  17.7 km/h 68 % 0.00 in /  0 mm 204 W/m2
15:36 58.8 °F /  14.9 °C 47.9 °F /  8.8 °C 30.19 in /  1022.2 hPa NE 6.0 mph /  9.7 km/h 14.0 mph /  22.5 km/h 67 % 0.00 in /  0 mm 158 W/m2
15:42 58.6 °F /  14.8 °C 47.7 °F /  8.7 °C 30.18 in /  1021.9 hPa NE 6.0 mph /  9.7 km/h 14.0 mph /  22.5 km/h 67 % 0.00 in /  0 mm 144 W/m2
15:47 58.5 °F /  14.7 °C 47.9 °F /  8.8 °C 30.18 in /  1021.9 hPa NE 5.0 mph /  8 km/h 10.0 mph /  16.1 km/h 68 % 0.00 in /  0 mm 137 W/m2
15:52 58.3 °F /  14.6 °C 47.8 °F /  8.8 °C 30.18 in /  1021.9 hPa NE 6.0 mph /  9.7 km/h 16.0 mph /  25.7 km/h 68 % 0.00 in /  0 mm 132 W/m2
15:58 58.3 °F /  14.6 °C 48.2 °F /  9 °C 30.19 in /  1022.2 hPa NE 5.0 mph /  8 km/h 16.0 mph /  25.7 km/h 69 % 0.00 in /  0 mm 171 W/m2
16:03 58.3 °F /  14.6 °C 48.2 °F /  9 °C 30.18 in /  1021.9 hPa NE 5.0 mph /  8 km/h 10.0 mph /  16.1 km/h 69 % 0.00 in /  0 mm 673 W/m2
16:08 58.8 °F /  14.9 °C 48.3 °F /  9.1 °C 30.18 in /  1021.9 hPa NE 5.0 mph /  8 km/h 15.0 mph /  24.1 km/h 68 % 0.00 in /  0 mm 313 W/m2
16:13 59.2 °F /  15.1 °C 47.8 °F /  8.8 °C 30.19 in /  1022.2 hPa NE 7.0 mph /  11.3 km/h 16.0 mph /  25.7 km/h 66 % 0.00 in /  0 mm 352 W/m2
16:18 59.4 °F /  15.2 °C 48.4 °F /  9.1 °C 30.19 in /  1022.2 hPa NE 8.0 mph /  12.9 km/h 16.0 mph /  25.7 km/h 67 % 0.00 in /  0 mm 568 W/m2
16:23 59.4 °F /  15.2 °C 47.6 °F /  8.7 °C 30.19 in /  1022.2 hPa ENE 8.0 mph /  12.9 km/h 19.0 mph /  30.6 km/h 65 % 0.00 in /  0 mm 253 W/m2
16:28 59.0 °F /  15 °C 47.2 °F /  8.4 °C 30.19 in /  1022.2 hPa ENE 8.0 mph /  12.9 km/h 19.0 mph /  30.6 km/h 65 % 0.00 in /  0 mm 294 W/m2
16:33 58.8 °F /  14.9 °C 47.5 °F /  8.6 °C 30.19 in /  1022.2 hPa ENE 9.0 mph /  14.5 km/h 15.0 mph /  24.1 km/h 66 % 0.00 in /  0 mm 334 W/m2
16:38 58.6 °F /  14.8 °C 47.7 °F /  8.7 °C 30.19 in /  1022.2 hPa ENE 9.0 mph /  14.5 km/h 16.0 mph /  25.7 km/h 67 % 0.00 in /  0 mm 130 W/m2
16:43 58.3 °F /  14.6 °C 48.5 °F /  9.2 °C 30.19 in /  1022.2 hPa ENE 8.0 mph /  12.9 km/h 16.0 mph /  25.7 km/h 70 % 0.00 in /  0 mm 151 W/m2
16:48 57.7 °F /  14.3 °C 48.8 °F /  9.3 °C 30.19 in /  1022.2 hPa ENE 8.0 mph /  12.9 km/h 18.0 mph /  29 km/h 72 % 0.00 in /  0 mm 244 W/m2
16:53 57.4 °F /  14.1 °C 48.4 °F /  9.1 °C 30.19 in /  1022.2 hPa ENE 9.0 mph /  14.5 km/h 18.0 mph /  29 km/h 72 % 0.00 in /  0 mm 153 W/m2
16:58 57.0 °F /  13.9 °C 48.4 °F /  9.1 °C 30.20 in /  1022.6 hPa ENE 9.0 mph /  14.5 km/h 16.0 mph /  25.7 km/h 73 % 0.00 in /  0 mm 221 W/m2
17:03 57.0 °F /  13.9 °C 48.8 °F /  9.3 °C 30.20 in /  1022.6 hPa NE 8.0 mph /  12.9 km/h 16.0 mph /  25.7 km/h 74 % 0.00 in /  0 mm 415 W/m2
17:08 57.2 °F /  14 °C 48.6 °F /  9.2 °C 30.20 in /  1022.6 hPa NE 8.0 mph /  12.9 km/h 18.0 mph /  29 km/h 73 % 0.00 in /  0 mm 385 W/m2
17:13 57.2 °F /  14 °C 48.6 °F /  9.2 °C 30.20 in /  1022.6 hPa ENE 8.0 mph /  12.9 km/h 18.0 mph /  29 km/h 73 % 0.00 in /  0 mm 218 W/m2
17:18 56.8 °F /  13.8 °C 48.3 °F /  9.1 °C 30.20 in /  1022.6 hPa ENE 8.0 mph /  12.9 km/h 16.0 mph /  25.7 km/h 73 % 0.00 in /  0 mm 216 W/m2
17:23 56.8 °F /  13.8 °C 48.3 °F /  9.1 °C 30.20 in /  1022.6 hPa ENE 8.0 mph /  12.9 km/h 16.0 mph /  25.7 km/h 73 % 0.00 in /  0 mm 188 W/m2
17:28 56.7 °F /  13.7 °C 48.1 °F /  8.9 °C 30.20 in /  1022.6 hPa ENE 7.0 mph /  11.3 km/h 12.0 mph /  19.3 km/h 73 % 0.00 in /  0 mm 95 W/m2
17:33 56.5 °F /  13.6 °C 47.9 °F /  8.8 °C 30.20 in /  1022.6 hPa ENE 7.0 mph /  11.3 km/h 14.0 mph /  22.5 km/h 73 % 0.00 in /  0 mm 88 W/m2
17:38 56.1 °F /  13.4 °C 47.6 °F /  8.7 °C 30.21 in /  1022.9 hPa ENE 7.0 mph /  11.3 km/h 16.0 mph /  25.7 km/h 73 % 0.00 in /  0 mm 125 W/m2
17:43 55.8 °F /  13.2 °C 47.2 °F /  8.4 °C 30.21 in /  1022.9 hPa ENE 8.0 mph /  12.9 km/h 16.0 mph /  25.7 km/h 73 % 0.00 in /  0 mm 139 W/m2
17:48 55.2 °F /  12.9 °C 46.7 °F /  8.2 °C 30.21 in /  1022.9 hPa ENE 9.0 mph /  14.5 km/h 18.0 mph /  29 km/h 73 % 0.00 in /  0 mm 86 W/m2
17:53 54.7 °F /  12.6 °C 46.6 °F /  8.1 °C 30.21 in /  1022.9 hPa ENE 9.0 mph /  14.5 km/h 18.0 mph /  29 km/h 74 % 0.00 in /  0 mm 76 W/m2
17:58 54.5 °F /  12.5 °C 47.1 °F /  8.4 °C 30.21 in /  1022.9 hPa ENE 7.0 mph /  11.3 km/h 13.0 mph /  20.9 km/h 76 % 0.00 in /  0 mm 70 W/m2
18:03 54.3 °F /  12.4 °C 46.9 °F /  8.3 °C 30.21 in /  1022.9 hPa ENE 7.0 mph /  11.3 km/h 12.0 mph /  19.3 km/h 76 % 0.00 in /  0 mm 91 W/m2
18:08 54.0 °F /  12.2 °C 46.9 °F /  8.3 °C 30.22 in /  1023.2 hPa ENE 7.0 mph /  11.3 km/h 12.0 mph /  19.3 km/h 77 % 0.00 in /  0 mm 77 W/m2
18:13 53.8 °F /  12.1 °C 46.7 °F /  8.2 °C 30.22 in /  1023.2 hPa ENE 7.0 mph /  11.3 km/h 13.0 mph /  20.9 km/h 77 % 0.00 in /  0 mm 58 W/m2
18:18 53.8 °F /  12.1 °C 47.1 °F /  8.4 °C 30.22 in /  1023.2 hPa ENE 7.0 mph /  11.3 km/h 13.0 mph /  20.9 km/h 78 % 0.00 in /  0 mm 44 W/m2
18:24 53.6 °F /  12 °C 46.9 °F /  8.3 °C 30.22 in /  1023.2 hPa ENE 6.0 mph /  9.7 km/h 14.0 mph /  22.5 km/h 78 % 0.00 in /  0 mm 46 W/m2
18:29 53.4 °F /  11.9 °C 46.7 °F /  8.2 °C 30.22 in /  1023.2 hPa ENE 7.0 mph /  11.3 km/h 14.0 mph /  22.5 km/h 78 % 0.00 in /  0 mm 90 W/m2
18:34 53.2 °F /  11.8 °C 46.6 °F /  8.1 °C 30.22 in /  1023.2 hPa ENE 7.0 mph /  11.3 km/h 12.0 mph /  19.3 km/h 78 % 0.00 in /  0 mm 127 W/m2
18:39 53.2 °F /  11.8 °C 46.2 °F /  7.9 °C 30.23 in /  1023.6 hPa ENE 6.0 mph /  9.7 km/h 12.0 mph /  19.3 km/h 77 % 0.00 in /  0 mm 172 W/m2
18:44 53.2 °F /  11.8 °C 46.2 °F /  7.9 °C 30.23 in /  1023.6 hPa ENE 7.0 mph /  11.3 km/h 13.0 mph /  20.9 km/h 77 % 0.00 in /  0 mm 186 W/m2
18:49 53.2 °F /  11.8 °C 46.2 °F /  7.9 °C 30.23 in /  1023.6 hPa ENE 7.0 mph /  11.3 km/h 13.0 mph /  20.9 km/h 77 % 0.00 in /  0 mm 199 W/m2
18:54 53.2 °F /  11.8 °C 46.2 °F /  7.9 °C 30.23 in /  1023.6 hPa ENE 7.0 mph /  11.3 km/h 13.0 mph /  20.9 km/h 77 % 0.00 in /  0 mm 181 W/m2
18:59 53.2 °F /  11.8 °C 46.2 °F /  7.9 °C 30.23 in /  1023.6 hPa ENE 7.0 mph /  11.3 km/h 12.0 mph /  19.3 km/h 77 % 0.00 in /  0 mm 149 W/m2
19:04 53.2 °F /  11.8 °C 46.2 °F /  7.9 °C 30.23 in /  1023.6 hPa ENE 6.0 mph /  9.7 km/h 12.0 mph /  19.3 km/h 77 % 0.00 in /  0 mm 134 W/m2
19:09 53.1 °F /  11.7 °C 46.0 °F /  7.8 °C 30.23 in /  1023.6 hPa ENE 6.0 mph /  9.7 km/h 13.0 mph /  20.9 km/h 77 % 0.00 in /  0 mm 104 W/m2
19:14 53.1 °F /  11.7 °C 46.0 °F /  7.8 °C 30.23 in /  1023.6 hPa ENE 5.0 mph /  8 km/h 13.0 mph /  20.9 km/h 77 % 0.00 in /  0 mm 90 W/m2
19:19 52.9 °F /  11.6 °C 45.9 °F /  7.7 °C 30.23 in /  1023.6 hPa ENE 5.0 mph /  8 km/h 13.0 mph /  20.9 km/h 77 % 0.00 in /  0 mm 74 W/m2
19:24 52.5 °F /  11.4 °C 45.9 °F /  7.7 °C 30.24 in /  1023.9 hPa ENE 7.0 mph /  11.3 km/h 13.0 mph /  20.9 km/h 78 % 0.00 in /  0 mm 69 W/m2
19:29 52.3 °F /  11.3 °C 45.7 °F /  7.6 °C 30.24 in /  1023.9 hPa ENE 6.0 mph /  9.7 km/h 12.0 mph /  19.3 km/h 78 % 0.00 in /  0 mm 69 W/m2
19:34 52.3 °F /  11.3 °C 46.0 °F /  7.8 °C 30.24 in /  1023.9 hPa ENE 5.0 mph /  8 km/h 12.0 mph /  19.3 km/h 79 % 0.00 in /  0 mm 56 W/m2
19:39 52.2 °F /  11.2 °C 45.5 °F /  7.5 °C 30.24 in /  1023.9 hPa ENE 5.0 mph /  8 km/h 12.0 mph /  19.3 km/h 78 % 0.00 in /  0 mm 44 W/m2
19:44 52.0 °F /  11.1 °C 45.3 °F /  7.4 °C 30.24 in /  1023.9 hPa ENE 5.0 mph /  8 km/h 11.0 mph /  17.7 km/h 78 % 0.00 in /  0 mm 37 W/m2
19:49 51.6 °F /  10.9 °C 45.3 °F /  7.4 °C 30.25 in /  1024.3 hPa ENE 5.0 mph /  8 km/h 9.0 mph /  14.5 km/h 79 % 0.00 in /  0 mm 30 W/m2
19:54 51.4 °F /  10.8 °C 45.5 °F /  7.5 °C 30.25 in /  1024.3 hPa ENE 3.0 mph /  4.8 km/h 9.0 mph /  14.5 km/h 80 % 0.00 in /  0 mm 30 W/m2
19:59 51.3 °F /  10.7 °C 45.3 °F /  7.4 °C 30.25 in /  1024.3 hPa ENE 3.0 mph /  4.8 km/h 8.0 mph /  12.9 km/h 80 % 0.00 in /  0 mm 26 W/m2
20:04 51.1 °F /  10.6 °C 45.1 °F /  7.3 °C 30.25 in /  1024.3 hPa ENE 3.0 mph /  4.8 km/h 8.0 mph /  12.9 km/h 80 % 0.00 in /  0 mm 23 W/m2
20:09 50.9 °F /  10.5 °C 45.3 °F /  7.4 °C 30.25 in /  1024.3 hPa ENE 2.0 mph /  3.2 km/h 6.0 mph /  9.7 km/h 81 % 0.00 in /  0 mm 16 W/m2
20:14 50.7 °F /  10.4 °C 45.1 °F /  7.3 °C 30.25 in /  1024.3 hPa ENE 3.0 mph /  4.8 km/h 9.0 mph /  14.5 km/h 81 % 0.00 in /  0 mm 14 W/m2
20:19 50.7 °F /  10.4 °C 45.4 °F /  7.4 °C 30.26 in /  1024.6 hPa ENE 3.0 mph /  4.8 km/h 9.0 mph /  14.5 km/h 82 % 0.00 in /  0 mm 12 W/m2
20:24 50.5 °F /  10.3 °C 45.2 °F /  7.3 °C 30.26 in /  1024.6 hPa ENE 3.0 mph /  4.8 km/h 6.0 mph /  9.7 km/h 82 % 0.00 in /  0 mm 11 W/m2
20:29 50.4 °F /  10.2 °C 45.1 °F /  7.3 °C 30.26 in /  1024.6 hPa ENE 3.0 mph /  4.8 km/h 7.0 mph /  11.3 km/h 82 % 0.00 in /  0 mm 7 W/m2
20:34 50.2 °F /  10.1 °C 45.2 °F /  7.3 °C 30.26 in /  1024.6 hPa ENE 4.0 mph /  6.4 km/h 8.0 mph /  12.9 km/h 83 % 0.00 in /  0 mm 0 W/m2
20:39 50.2 °F /  10.1 °C 45.2 °F /  7.3 °C 30.27 in /  1024.9 hPa ENE 4.0 mph /  6.4 km/h 8.0 mph /  12.9 km/h 83 % 0.00 in /  0 mm 0 W/m2
20:44 50.2 °F /  10.1 °C 45.2 °F /  7.3 °C 30.27 in /  1024.9 hPa ENE 4.0 mph /  6.4 km/h 7.0 mph /  11.3 km/h 83 % 0.00 in /  0 mm 0 W/m2
20:45 50.2 °F /  10.1 °C 45.2 °F /  7.3 °C 30.26 in /  1024.6 hPa ENE 4.0 mph /  6.4 km/h 7.0 mph /  11.3 km/h 83 % 0.00 in /  0 mm 0 W/m2
20:50 50.0 °F /  10 °C 45.4 °F /  7.4 °C 30.27 in /  1024.9 hPa ENE 3.0 mph /  4.8 km/h 7.0 mph /  11.3 km/h 84 % 0.00 in /  0 mm 0 W/m2
20:55 49.8 °F /  9.9 °C 44.9 °F /  7.2 °C 30.27 in /  1024.9 hPa ENE 2.0 mph /  3.2 km/h 6.0 mph /  9.7 km/h 83 % 0.00 in /  0 mm 0 W/m2
21:00 49.6 °F /  9.8 °C 45.0 °F /  7.2 °C 30.27 in /  1024.9 hPa ENE 2.0 mph /  3.2 km/h 8.0 mph /  12.9 km/h 84 % 0.00 in /  0 mm 0 W/m2
21:05 49.5 °F /  9.7 °C 44.8 °F /  7.1 °C 30.27 in /  1024.9 hPa ENE 3.0 mph /  4.8 km/h 8.0 mph /  12.9 km/h 84 % 0.00 in /  0 mm 0 W/m2
21:10 49.3 °F /  9.6 °C 44.6 °F /  7 °C 30.27 in /  1024.9 hPa ENE 3.0 mph /  4.8 km/h 7.0 mph /  11.3 km/h 84 % 0.00 in /  0 mm 0 W/m2
21:15 49.1 °F /  9.5 °C 44.8 °F /  7.1 °C 30.28 in /  1025.3 hPa ENE 3.0 mph /  4.8 km/h 7.0 mph /  11.3 km/h 85 % 0.00 in /  0 mm 0 W/m2
21:20 48.9 °F /  9.4 °C 44.6 °F /  7 °C 30.28 in /  1025.3 hPa East 3.0 mph /  4.8 km/h 7.0 mph /  11.3 km/h 85 % 0.00 in /  0 mm 0 W/m2
21:25 48.9 °F /  9.4 °C 44.6 °F /  7 °C 30.28 in /  1025.3 hPa East 2.0 mph /  3.2 km/h 7.0 mph /  11.3 km/h 85 % 0.00 in /  0 mm 0 W/m2
21:30 48.7 °F /  9.3 °C 44.7 °F /  7.1 °C 30.28 in /  1025.3 hPa ENE 2.0 mph /  3.2 km/h 6.0 mph /  9.7 km/h 86 % 0.00 in /  0 mm 0 W/m2
21:35 48.7 °F /  9.3 °C 44.7 °F /  7.1 °C 30.28 in /  1025.3 hPa ENE 2.0 mph /  3.2 km/h 8.0 mph /  12.9 km/h 86 % 0.00 in /  0 mm 0 W/m2
21:40 48.7 °F /  9.3 °C 44.7 °F /  7.1 °C 30.29 in /  1025.6 hPa ENE 1.0 mph /  1.6 km/h 8.0 mph /  12.9 km/h 86 % 0.00 in /  0 mm 0 W/m2
21:45 48.7 °F /  9.3 °C 44.7 °F /  7.1 °C 30.29 in /  1025.6 hPa East 1.0 mph /  1.6 km/h 7.0 mph /  11.3 km/h 86 % 0.00 in /  0 mm 0 W/m2
21:50 48.7 °F /  9.3 °C 44.7 °F /  7.1 °C 30.29 in /  1025.6 hPa East 1.0 mph /  1.6 km/h 7.0 mph /  11.3 km/h 86 % 0.00 in /  0 mm 0 W/m2
21:55 48.7 °F /  9.3 °C 44.7 °F /  7.1 °C 30.29 in /  1025.6 hPa ENE 2.0 mph /  3.2 km/h 8.0 mph /  12.9 km/h 86 % 0.00 in /  0 mm 0 W/m2
22:00 48.6 °F /  9.2 °C 44.6 °F /  7 °C 30.28 in /  1025.3 hPa ENE 4.0 mph /  6.4 km/h 8.0 mph /  12.9 km/h 86 % 0.00 in /  0 mm 0 W/m2
22:05 48.4 °F /  9.1 °C 44.4 °F /  6.9 °C 30.29 in /  1025.6 hPa ENE 3.0 mph /  4.8 km/h 8.0 mph /  12.9 km/h 86 % 0.00 in /  0 mm 0 W/m2
22:10 48.2 °F /  9 °C 44.2 °F /  6.8 °C 30.28 in /  1025.3 hPa NE 3.0 mph /  4.8 km/h 13.0 mph /  20.9 km/h 86 % 0.00 in /  0 mm 0 W/m2
22:15 48.0 °F /  8.9 °C 44.0 °F /  6.7 °C 30.29 in /  1025.6 hPa NNE 4.0 mph /  6.4 km/h 13.0 mph /  20.9 km/h 86 % 0.00 in /  0 mm 0 W/m2
22:20 47.8 °F /  8.8 °C 43.9 °F /  6.6 °C 30.29 in /  1025.6 hPa NE 4.0 mph /  6.4 km/h 12.0 mph /  19.3 km/h 86 % 0.00 in /  0 mm 0 W/m2
22:25 47.7 °F /  8.7 °C 43.7 °F /  6.5 °C 30.29 in /  1025.6 hPa NE 4.0 mph /  6.4 km/h 12.0 mph /  19.3 km/h 86 % 0.00 in /  0 mm 0 W/m2
22:30 47.5 °F /  8.6 °C 43.5 °F /  6.4 °C 30.29 in /  1025.6 hPa NE 4.0 mph /  6.4 km/h 9.0 mph /  14.5 km/h 86 % 0.00 in /  0 mm 0 W/m2
22:35 47.3 °F /  8.5 °C 43.3 °F /  6.3 °C 30.29 in /  1025.6 hPa NE 4.0 mph /  6.4 km/h 9.0 mph /  14.5 km/h 86 % 0.00 in /  0 mm 0 W/m2
22:38 47.1 °F /  8.4 °C 43.1 °F /  6.2 °C 30.29 in /  1025.6 hPa NE 3.0 mph /  4.8 km/h 8.0 mph /  12.9 km/h 86 % 0.00 in /  0 mm 0 W/m2
22:43 46.9 °F /  8.3 °C 43.0 °F /  6.1 °C 30.29 in /  1025.6 hPa NE 2.0 mph /  3.2 km/h 7.0 mph /  11.3 km/h 86 % 0.00 in /  0 mm 0 W/m2
22:48 46.9 °F /  8.3 °C 43.0 °F /  6.1 °C 30.30 in /  1026 hPa NE 1.0 mph /  1.6 km/h 7.0 mph /  11.3 km/h 86 % 0.00 in /  0 mm 0 W/m2
22:49 46.9 °F /  8.3 °C 43.0 °F /  6.1 °C 30.30 in /  1026 hPa NE 1.0 mph /  1.6 km/h 7.0 mph /  11.3 km/h 86 % 0.00 in /  0 mm 0 W/m2
22:54 46.8 °F /  8.2 °C 42.8 °F /  6 °C 30.30 in /  1026 hPa NE 2.0 mph /  3.2 km/h 11.0 mph /  17.7 km/h 86 % 0.00 in /  0 mm 0 W/m2
22:59 46.8 °F /  8.2 °C 43.1 °F /  6.2 °C 30.30 in /  1026 hPa NE 3.0 mph /  4.8 km/h 11.0 mph /  17.7 km/h 87 % 0.00 in /  0 mm 0 W/m2
23:04 46.8 °F /  8.2 °C 43.1 °F /  6.2 °C 30.30 in /  1026 hPa NE 2.0 mph /  3.2 km/h 7.0 mph /  11.3 km/h 87 % 0.00 in /  0 mm 0 W/m2
23:09 46.6 °F /  8.1 °C 42.9 °F /  6.1 °C 30.30 in /  1026 hPa NNE 2.0 mph /  3.2 km/h 8.0 mph /  12.9 km/h 87 % 0.00 in /  0 mm 0 W/m2
23:14 46.6 °F /  8.1 °C 42.9 °F /  6.1 °C 30.30 in /  1026 hPa NNE 3.0 mph /  4.8 km/h 8.0 mph /  12.9 km/h 87 % 0.00 in /  0 mm 0 W/m2
23:19 46.6 °F /  8.1 °C 43.2 °F /  6.2 °C 30.31 in /  1026.3 hPa NE 3.0 mph /  4.8 km/h 9.0 mph /  14.5 km/h 88 % 0.00 in /  0 mm 0 W/m2
23:24 46.6 °F /  8.1 °C 43.2 °F /  6.2 °C 30.30 in /  1026 hPa NE 3.0 mph /  4.8 km/h 9.0 mph /  14.5 km/h 88 % 0.00 in /  0 mm 0 W/m2
23:29 46.6 °F /  8.1 °C 43.2 °F /  6.2 °C 30.30 in /  1026 hPa NE 3.0 mph /  4.8 km/h 11.0 mph /  17.7 km/h 88 % 0.00 in /  0 mm 0 W/m2
23:34 46.6 °F /  8.1 °C 43.2 °F /  6.2 °C 30.30 in /  1026 hPa ENE 4.0 mph /  6.4 km/h 11.0 mph /  17.7 km/h 88 % 0.00 in /  0 mm 0 W/m2
23:39 46.8 °F /  8.2 °C 43.4 °F /  6.3 °C 30.30 in /  1026 hPa NE 4.0 mph /  6.4 km/h 10.0 mph /  16.1 km/h 88 % 0.00 in /  0 mm 0 W/m2
23:44 46.8 °F /  8.2 °C 43.4 °F /  6.3 °C 30.30 in /  1026 hPa NE 3.0 mph /  4.8 km/h 8.0 mph /  12.9 km/h 88 % 0.00 in /  0 mm 0 W/m2
23:49 46.8 °F /  8.2 °C 43.4 °F /  6.3 °C 30.30 in /  1026 hPa NNE 4.0 mph /  6.4 km/h 18.0 mph /  29 km/h 88 % 0.00 in /  0 mm 0 W/m2
23:54 46.8 °F /  8.2 °C 43.4 °F /  6.3 °C 30.30 in /  1026 hPa NNE 6.0 mph /  9.7 km/h 18.0 mph /  29 km/h 88 % 0.00 in /  0 mm 0 W/m2
23:59 46.8 °F /  8.2 °C 43.4 °F /  6.3 °C 30.30 in /  1026 hPa NE 6.0 mph /  9.7 km/h 12.0 mph /  19.3 km/h 88 % 0.00 in /  0 mm 0 W/m2
Delerius-Weather
Compliments of Weather Underground - 2.25 mb

Data updates at regular intervals.